TimeAKDT,TemperatureF,Dew PointF,Humidity,Sea Level PressureIn,VisibilityMPH,Wind Direction,Wind SpeedMPH,Gust SpeedMPH,PrecipitationIn,Events,Conditions,WindDirDegrees,DateUTC
12:53 AM,36.0,30.0,79,29.52,10.0,North,13.8,-,N/A,,Clear,360,2012-10-12 08:53:00
1:53 AM,35.1,28.9,78,29.49,10.0,North,16.1,-,N/A,,Clear,360,2012-10-12 09:53:00
2:53 AM,34.0,28.9,82,29.47,10.0,NNE,12.7,-,N/A,,Clear,20,2012-10-12 10:53:00
3:53 AM,34.0,28.9,82,29.44,10.0,North,15.0,20.7,N/A,,Clear,360,2012-10-12 11:53:00
4:53 AM,34.0,28.0,79,29.42,10.0,North,13.8,-,N/A,,Clear,10,2012-10-12 12:53:00
5:53 AM,33.1,28.0,82,29.40,10.0,North,13.8,-,N/A,,Clear,360,2012-10-12 13:53:00
6:53 AM,32.0,27.0,82,29.39,10.0,North,13.8,-,N/A,,Clear,10,2012-10-12 14:53:00
7:53 AM,30.9,26.1,82,29.37,10.0,North,12.7,-,N/A,,Clear,10,2012-10-12 15:53:00
8:53 AM,30.0,26.1,85,29.35,10.0,NNE,5.8,-,N/A,,Clear,30,2012-10-12 16:53:00
9:53 AM,30.9,27.0,85,29.34,10.0,North,9.2,-,N/A,,Clear,10,2012-10-12 17:53:00
10:53 AM,34.0,27.0,75,29.32,10.0,North,5.8,-,N/A,,Clear,10,2012-10-12 18:53:00
11:53 AM,36.0,28.0,73,29.30,10.0,North,10.4,-,N/A,,Clear,360,2012-10-12 19:53:00
12:53 PM,39.0,28.0,65,29.28,10.0,North,10.4,-,N/A,,Clear,360,2012-10-12 20:53:00
1:53 PM,41.0,28.0,60,29.25,10.0,North,10.4,-,N/A,,Clear,10,2012-10-12 21:53:00
2:53 PM,43.0,28.9,58,29.22,10.0,North,8.1,-,N/A,,Clear,360,2012-10-12 22:53:00
3:53 PM,44.1,28.9,55,29.20,10.0,NNW,9.2,-,N/A,,Clear,340,2012-10-12 23:53:00
4:53 PM,44.1,27.0,51,29.18,10.0,North,6.9,-,N/A,,Clear,360,2012-10-13 00:53:00
5:53 PM,42.1,26.1,53,29.16,10.0,North,10.4,-,N/A,,Clear,360,2012-10-13 01:53:00
6:53 PM,39.0,25.0,57,29.15,10.0,NNW,6.9,-,N/A,,Clear,340,2012-10-13 02:53:00
7:53 PM,34.0,24.1,67,29.14,10.0,NW,6.9,-,N/A,,Clear,310,2012-10-13 03:53:00
10:53 PM,33.1,21.0,61,29.13,10.0,North,11.5,-,N/A,,Clear,10,2012-10-13 06:53:00
11:53 PM,32.0,21.0,64,29.13,10.0,North,11.5,-,N/A,,Clear,10,2012-10-13 07:53:00